HST 1 20580U 90037B 26071.94420327 .00008743 00000+0 28877-3 0 9997 2 20580 28.4723 17.7975 0001801 157.8636 202.2037 15.29540863773810 POLAR 1 23802U 96013A 26071.75912909 .00000230 00000+0 00000+0 0 9995 2 23802 79.7549 228.1560 6372623 212.3556 84.2219 1.29845761143608 SWAS 1 25560U 98071A 26071.51801588 .00004002 00000+0 25960-3 0 9995 2 25560 69.8953 116.6813 0004297 8.2773 351.8461 15.08914015482685 CXO 1 25867U 99040B 26074.17591503 .00001098 00000+0 00000+0 0 9996 2 25867 54.6015 119.5309 7987924 310.6410 0.3950 0.37797975 16963 XMM-NEWTON 1 25989U 99066A 26073.60830429 .00000188 00000+0 00000+0 0 9998 2 25989 64.9635 284.2156 4708982 66.5664 0.0242 0.50129949 22525 TERRA 1 25994U 99068A 26072.01302381 .00000518 00000+0 11473-3 0 9998 2 25994 97.9587 125.3207 0002900 143.9108 332.0707 14.61018741395566 CLUSTER II-FM7 (SAMBA) 1 26410U 00041A 26072.18498853 .00009157 00000+0 00000+0 0 9991 2 26410 149.0994 35.5717 8921020 251.7870 0.4837 0.44824009 19879 CLUSTER II-FM8 (TANGO) 1 26464U 00045B 26049.06287974 .00004776 00000+0 00000+0 0 9997 2 26464 149.0711 33.5376 8890045 249.4570 359.4916 0.44405995 19769 ODIN 1 26702U 01007A 26072.00075894 .00050473 00000+0 64711-3 0 9995 2 26702 97.4074 108.1826 0004850 135.6815 224.4830 15.58999717374358 TIMED 1 26998U 01055B 26071.99181342 .00001762 00000+0 16456-3 0 9998 2 26998 74.0662 68.6728 0003011 271.1700 88.9139 14.95034458316440 CORIOLIS 1 27640U 03001A 26072.01157777 .00000168 00000+0 99454-4 0 9994 2 27640 98.7161 80.3544 0014891 127.4545 232.7988 14.19914173200571 SORCE 1 27651U 03004A 26071.48966953 .00003789 00000+0 28608-3 0 9997 2 27651 39.9903 93.1396 0015685 76.9152 283.3392 15.03120209257346 MOST 1 27843U 03031D 26071.62627919 .00000126 00000+0 77929-4 0 9995 2 27843 98.7083 80.6875 0010100 165.2865 194.8608 14.21300235176999 SCISAT 1 1 27858U 03036A 26071.24935068 .00001182 00000+0 15598-3 0 9997 2 27858 73.9327 3.9292 0005810 91.6386 268.5456 14.81319123217093 SWIFT 1 28485U 04047A 26071.67983809 .00044975 00000+0 52958-3 0 9998 2 28485 20.5517 204.4373 0003847 69.9332 290.1526 15.59560858171732 HINODE (SOLAR-B) 1 29479U 06041A 26071.63781334 .00000849 00000+0 15482-3 0 9996 2 29479 98.0621 89.1925 0016437 231.6577 128.3151 14.68479481 40709 SHIJIAN-6 02A (SJ-6 02A) 1 29505U 06046A 26072.01223584 .00004811 00000+0 25578-3 0 9992 2 29505 97.6500 112.3783 0004821 106.3266 253.8497 15.15752173 57696 SHIJIAN-6 02B (SJ-6 02B) 1 29506U 06046B 26072.03117534 .00002417 00000+0 19369-3 0 9993 2 29506 97.7074 101.7387 0013865 32.9100 327.2984 15.01017278 56315 FGRST (GLAST) 1 33053U 08029A 26071.63070959 .00004605 00000+0 17444-3 0 9995 2 33053 25.5809 154.6400 0007723 266.3426 93.6229 15.23359082981099 SDO 1 36395U 10005A 26071.55162550 -.00000063 00000+0 00000+0 0 9995 2 36395 34.4469 87.8047 0000086 84.2934 94.8230 1.00275413 59098 CRYOSAT 2 1 36508U 10013A 26072.00695200 .00000324 00000+0 79749-4 0 9994 2 36508 92.0231 253.9929 0002091 90.8581 269.2866 14.51910958844124 X-SAT 1 37389U 11015C 26071.97282142 .00000032 00000+0 30945-4 0 9998 2 37389 98.3437 53.6245 0012825 266.1267 93.8448 14.25174060773978 GCOM-W1 (SHIZUKU) 1 38337U 12025A 26071.82024023 .00000787 00000+0 18462-3 0 9996 2 38337 98.2055 13.8340 0001438 73.3436 312.4119 14.57103972735001 NUSTAR 1 38358U 12031A 26072.00002315 .00008671 00000+0 49598-3 0 9991 2 38358 6.0268 35.0996 0007212 122.0667 47.8512 15.07772777 1300 NEOSSAT 1 39089U 13009D 26071.48348189 .00000257 00000+0 10357-3 0 9995 2 39089 98.4145 253.8223 0011226 169.1062 191.0370 14.35787405682869 BRITE-AUSTRIA 1 39091U 13009F 26071.46039286 .00000294 00000+0 11477-3 0 9996 2 39091 98.3959 253.2985 0010535 163.0454 197.1086 14.36498146683160 IRIS 1 39197U 13033A 26071.99490167 .00001674 00000+0 19875-3 0 9990 2 39197 97.9398 271.5434 0023235 273.9954 85.8605 14.85657915686098 HISAKI (SPRINT-A) 1 39253U 13049A 26071.94283831 .00000122 00000+0 77354-4 0 9997 2 39253 29.7222 349.3199 0136616 316.4562 42.5295 13.55530990618356 CASSIOPE 1 39265U 13055A 26071.91344587 .00041184 -47523-6 49317-3 0 9999 2 39265 80.9190 183.0671 0314405 25.5159 336.1212 15.19028364653027 STSAT-3 1 39422U 13066G 26071.94332889 .00003552 00000+0 27445-3 0 9997 2 39422 97.6063 43.5025 0011096 2.6769 357.4514 15.02114614669756 SWARM B 1 39451U 13067A 26071.94392452 .00004858 00000+0 17728-3 0 9995 2 39451 87.7488 11.5037 0003659 84.5673 275.5994 15.27894777668546 SWARM A 1 39452U 13067B 26072.01806177 .00011813 00000+0 21893-3 0 9996 2 39452 87.3289 91.9243 0003120 94.8181 265.3435 15.48833334691351 SWARM C 1 39453U 13067C 26072.01795309 .00011823 00000+0 21911-3 0 9993 2 39453 87.3287 90.5056 0003135 95.0900 265.0718 15.48834039691315 BRITE-CA1 (TORONTO) 1 40020U 14033L 26071.95881406 .00001680 00000+0 26055-3 0 9999 2 40020 97.9572 202.7591 0078027 224.3095 135.1850 14.72475320628051 OCO 2 1 40059U 14035A 26071.94923414 .00000656 00000+0 15567-3 0 9996 2 40059 98.2097 14.7486 0001288 94.8487 265.2859 14.57099428622033 BRITE-PL2 (HEWELIUSZ) 1 40119U 14049B 26071.75358572 .00002283 00000+0 21816-3 0 9996 2 40119 97.8980 183.1015 0015231 71.7393 288.5482 14.94200875627045 MMS 1 1 40482U 15011A 26072.00002315 -.00002020 00000+0 00000+0 0 9997 2 40482 70.7809 350.1347 8405198 165.3169 207.5652 0.28347188 1357 MMS 2 1 40483U 15011B 26072.00002315 -.00002021 00000+0 00000+0 0 9999 2 40483 70.7811 350.1368 8405932 165.3230 207.5490 0.28347198 1350 MMS 3 1 40484U 15011C 26072.00002315 -.00002020 00000+0 00000+0 0 9999 2 40484 70.7835 350.1415 8405210 165.3172 207.5567 0.28347161 1359 MMS 4 1 40485U 15011D 26072.00002315 -.00002020 00000+0 00000+0 0 9990 2 40485 70.7816 350.1366 8404717 165.3245 207.5426 0.28347155 1353 ASTROSAT 1 40930U 15052A 26070.06787116 .00002332 00000+0 20297-3 0 9992 2 40930 5.9962 141.5185 0007465 71.8455 288.2486 14.82303343565247 DAMPE 1 41173U 15078A 26072.00400837 .00001579 00000+0 56030-4 0 9995 2 41173 97.4589 77.0082 0013695 60.9553 299.3058 15.30511910569839 PISAT 1 41784U 16059B 26071.95899490 .00001333 00000+0 23503-3 0 9999 2 41784 97.8192 76.5591 0029800 150.4930 209.7965 14.68783193505611 HXMT (HUIYAN) 1 42758U 17034A 26072.00288691 .00006990 00000+0 34893-3 0 9995 2 42758 43.0161 358.2530 0033225 256.1397 103.5753 15.17517246483049 FLYING LAPTOP 1 42831U 17042G 26071.97891887 .00005073 00000+0 40503-3 0 9994 2 42831 97.4276 231.5061 0019508 85.0278 275.3173 15.00545382472022 ZHANGHENG 1-01 (CSES-1) 1 43194U 18015C 26071.94447781 .00010975 00000+0 49491-3 0 9997 2 43194 97.6758 235.7386 0015065 232.7884 127.1977 15.21105748450018 SALSAT 1 46495U 20068K 26071.94691407 .00010457 00000+0 38231-3 0 9996 2 46495 97.8863 69.2667 0008098 282.5650 77.4683 15.28257479300659 IXPE 1 49954U 21121A 26072.00002315 .00013116 00000+0 74239-3 0 9995 2 49954 0.2305 324.4427 0007321 65.4209 157.8457 15.09267683 4781